STARLINK-11239 [DTC] (60924 NORAD) Tracking and Keplerian Element Data

This shows tracking and keplerian element data for the satellite.

Feedback or suggestion? Click here.




ElementValue
Catalog60924
NameSTARLINK-11239 [DTC]
Epoch Orbit778
Epoch Day286.49037598
Epoch Year2024
RAAN351.5116
Inclination53.1605
Eccentricity0.0001011
Argument of Perigee98.5392
Mean Anonmoly261.574
Mean Motion15.69710378
Decay Rate-1.346E-05
L11 60924U 24155A 24286.49037598 -.00001346 00000+0 -62521-5 0 9991
L22 60924 53.1605 351.5116 0001011 98.5392 261.5740 15.69710378 7788



Live tracking and technical data element details for STARLINK-11239 [DTC] (NORAD 60924). STARLINK-11239 [DTC] can be tracked NOW for your location showing map with azimuth and elevation plus other details from your city location.







IsCatalogInMostPopularTable: catalog: 60924, numindb: 7
Update: records affected: 1



GetName: 60924 STARLINK-11239 [DTC]

Hit Count: updated at: Wed, 04 Dec 2024 18:46:24 GMT